Location: Dana
(41.8364°N, 106.7042°W)
Time: 12:07:55
(UTC+00:00)

Injun/Solrad 3 - Pass Details

Date: 10 May 2026
Orbit: 867 x 989 km, 66.8° (Epoch: 11 June)

Event Time Altitude Azimuth Distance (km) Brightness Sun altitude
Rises 09:53:57 0° 320° (NW) 3,688 11.1 -18.6°
Reaches altitude 10° 09:56:49 10° 310° (NW) 2,745 10.3 -18.3°
Maximum altitude 10:02:15 30° 252° (WSW) 1,704 8.8 -17.6°
Enters shadow 10:03:42 27° 230° (SW) 1,797 8.8 -17.4°
Drops below altitude 10° 10:07:40 10° 194° (SSW) 2,735 - -16.8°
Sets 10:10:32 0° 184° (S) 3,671 - -16.4°
